Время (UTC), дата Ветер
(°,м/с) 
Видим.   Явления Облачность Т
(°С)
Тd
(°С)
f(%) Тe
(°С)
Pmin
(гПа)
dP
(гПа)
Po
(мм)
O2
(г/м3)
Тmin Tmax R s Состояние
почвы
00 01.02.11 150 (ЮВ) 4000 м  слаб. снег  10/10 600 м 
[Sc]
-7.3 -8.6 90 -7  1021.1  763  317           
03 01.02.11 тихо ()   4000 м  слаб. снег  10/10 600 м 
[Sc]
-6.6 -7.8 91 -7  1021.2  0.1  763  316        18  равномерный
сухой снег
100% 
06 01.02.11 050 (СВ) 4000 м  слаб. снег  10/10 600 м 
[Ns]
-5.1 -7.6 83 -5  1022.1  0.9  764  314  -8.5    0.0  18  равномерный
сухой снег
100% 
09 01.02.11 060 (СВ) 10 км  {снег}  3/3 1000 м 
[Cu hum]
-2.6 -8.7 63 -2  1021.7  -0.3  763  311           
12 01.02.11 040 (СВ) 10 км  {снег}  3/3 1000 м 
[Cu hum]
-2 -9.1 58 -1  1020.8  -0.9  763  311           
15 01.02.11 тихо ()   10 км    4/4 1000 м 
[Sc]
-4.2 -8.8 70 -4  1021.3  0.5  763  313           
18 01.02.11 040 (СВ) 10 км    ясно 
-6.8 -8.4 89 -6  1021.5  0.1  763  316    -1.5  0.0     
21 01.02.11 020 (С) 4000 м  дымка  5/0 средняя 
[As trans]
-7.7 -8.7 92 -7  1021.3  -0.2  763  317           
00 02.02.11 210 (ЮЗ) 4000 м  дымка  10/10 600 м 
[St]
-6.4 -7.6 91 -8  1021.4  0.1  763  316           
03 02.02.11 190 (Ю) 10 км    9/8 1000 м средняя 
[Sc|Ac trans]
-6.1 -8.4 84 -8  1020.7  -0.7  763  315        17  равномерный
сухой снег
100% 
06 02.02.11 150 (ЮВ) 10 км    10/8 600 м средняя 
[Sc|Ac und]
-4.7 -7.8 79 -4  1020.9  0.3  763  314  -8.2      17  равномерный
сухой снег
100% 
09 02.02.11 240 (ЮЗ) 10 км    10/4 1000 м средняя, верхняя 
[Sc|Ac trans|Cs]
-2.1 -6.7 71 -3  1020.1  -0.8  762  310           
12 02.02.11 190 (Ю) 10 км  слаб. снег  10/5 1000 м средняя, верхняя 
[Sc|Ac trans|Ci fib]
-0.1 -5.5 67 -1  1019.6  -0.5  762  308           
15 02.02.11 210 (ЮЗ) 2000 м  снег  10/10 600 м 
[Ns]
-0.7 -1.7 93 -2  1019.2  -0.4  762  308           
18 02.02.11 120 (ЮВ) 2000 м  снег  10/10 300 м 
[Ns]
-0.2 -1.1 94 1019.5  0.3  762  307    -0.1  0.5     
21 02.02.11 070 (В) 4000 м  слаб. снег  10/10 300 м 
[Ns]
-0.4 -1.3 94 1019.9  0.4  762  308           
00 03.02.11 120 (ЮВ) 10 км  {снег}  10/10 300 м 
[St|Ns]
-1.3 -2.3 93 -1  1020.8  0.9  763  309           
03 03.02.11 тихо ()   10 км  [диам. отлож. мокр. снега 12 мм]  10/10 300 м 
[St]
-2.2 -3.1 93 -2  1021.3  0.5  763  310        22  равномерный
сухой снег
100% 
06 03.02.11 тихо ()   2000 м  дымка  10/10 200 м 
[St]
-1.6 -2.1 97 -2  1022.2  0.9  764  310  -2.2      22  равномерный
сухой снег
100% 
09 03.02.11 140 (ЮВ) 2000 м  дымка  10/10 300 м 
[St]
-1.1 -2.4 91 -1  1022  -0.2  764  309           
12 03.02.11 240 (ЮЗ) 4000 м  дымка  10/10 300 м 
[St]
-1 -2.6 89 1021.5  -0.5  763  309           
15 03.02.11 тихо ()   1000 м  дымка  10/10 200 м 
[St]
-3 -3.7 95 -3  1021.7  0.2  763  311           
18 03.02.11 тихо ()   0500 м  туман  ?/?  
-2.4 -3 96 -2  1021.4  -0.3  763  311    -0.2       
21 03.02.11 040 (СВ) 1000 м  слаб. снег{туман}  10/10 200 м 
[Frnb|Ns]
-2 -2.6 96 -3  1020.2  -1.2  762  310           
00 04.02.11 070 (В) 1000 м  снег{туман}  10/10 200 м 
[Frnb|Ns]
-1.8 -2.3 96 -1  1019.3  -0.9  762  309           
03 04.02.11 030 (СВ) 0500 м  сильн. снег  10/10 100 м 
[Frnb|Ns]
-1.7 -2.2 96 -1  1018.9  -0.4  761  309        27  равномерный
сухой снег
100% 
06 04.02.11 280 (З) 2000 м  снег  10/10 200 м 
[Frnb|Ns]
-1.9 -2.5 96 -1  1020.3  1.4  762  310  -3    27  равномерный
сухой снег
100% 
09 04.02.11 310 (СЗ) 2000 м  слаб. снег  10/10 200 м 
[Frnb|Ns]
-1.4 -3.1 88 -2  1021.7  1.4  763  310           
12 04.02.11 300 (СЗ) 4000 м  дымка{снег}  9/5 300 м средняя 
[St|Ac trans]
-0.5 -4.6 74 -1  1022  0.3  764  309           
15 04.02.11 260 (З) 10 км    10/10 600 м 
[St]
-1.8 -4.2 84 -3  1023  764  311           
18 04.02.11 250 (З) 10 км    10/10 600 м 
[St]
-2 -4.5 83 -3  1023.3  0.3  765  311    -0.4     
21 04.02.11 230 (ЮЗ) 10 км    10/10 600 м 
[St]
-2 -5.1 79 -3  1023.3  765  311           
00 05.02.11 230 (ЮЗ) 10 км    10/10 600 м 
[St]
-1.1 -2.1 93 -2  1022.8  -0.5  764  309           
03 05.02.11 240 (ЮЗ) 10 км    10/10 600 м 
[St]
+0.1 -1.3 90 -1  1021.2  -1.6  763  308        30  равномерный
мокрый или
старый снег
100% 
06 05.02.11 260 (З) 10 км    9/8 600 м средняя 
[St|Ac cast]
+1 -0.4 90 1021  -0.1  763  306  -2      30  равномерный
мокрый или
старый снег
100% 
09 05.02.11 260 (З) 10 км  {ливн. осадки, снег}  9/8 600 м средняя 
[Sc|Ac trans]
+2.5 -0.8 79 +2  1019.5  -1.5  762  304           
12 05.02.11 260 (З) 10 км  {ливн. осадки, снег}  10/10 1000 м 
[Sc]
+5.3 -0.2 68 +4  1016.3  -3.1  760  300           
15 05.02.11 230 (ЮЗ) 10 км    10/0 средняя 
[As op]
+5.2 -0.7 66 +3  1014.1  -2.2  758  300           
18 05.02.11 230 (ЮЗ) 4000 м  слаб. дождь  10/10 600 м 
[Ns]
+4.5 +2 84 +2  1013.1  -1.1  757  300    +5.8  0.9     
21 05.02.11 230 (ЮЗ) 2000 м  дождь  10/10 300 м 
[Frnb|Ns]
+4.2 +2.5 89 +2  1012.8  -0.3  757  300           
00 06.02.11 220 (ЮЗ) 4000 м  слаб. дождь  10/10 600 м 
[Ns]
+4.5 +3 90 +2  1011.6  -1.2  756  299           
03 06.02.11 220 (ЮЗ) 2000 м  дождь  10/10 600 м 
[Ns]
+4.3 +3.3 93 +2  1010.3  -1.3  755  299           
06 06.02.11 230 (ЮЗ) 4000 м  слаб. дождь  10/10 600 м 
[Ns]
+4.8 +4.1 95 +4  1009.7  -0.5  755  298  +3.8      15  равномерный
мокрый или
старый снег
100% 
09 06.02.11 240 (ЮЗ) 4000 м  слаб. дождь  10/10 600 м 
[Frnb|Ns]
+5.8 +4.4 91 +4  1009.8  0.1  755  297           
12 06.02.11 240 (ЮЗ) 10  4000 м  слаб. дождь  10/10 600 м 
[Ns]
+6.4 +4.1 85 +3  1009.8  755  296           
15 06.02.11 260 (З) 10 км  {дождь}  10/10 600 м 
[Ns]
+6.5 +2.6 76 +5  1010.8  755  297           
18 06.02.11 250 (З) 10 км  {дождь}  9/3 1000 м средняя, верхняя 
[Sc|Ac trans|Ci fib]
+4.8 -0.2 70 +4  1011.8  0.9  756  299    +6.7  11     
21 06.02.11 270 (З) 10 км    8/8 1000 м 
[Sc]
+4.6 +2.4 86 +3  1012.6  0.8  757  299           
00 07.02.11 270 (З) 10 км    3/0 средняя 
[Ac trans]
+3.4 +1.1 85 +2  1014.7  2.1  758  302           
03 07.02.11 260 (З) 10 км    ясно 
+1.8 -0.4 85 1016.1  1.4  759  304           
06 07.02.11 270 (З) 10 км    3/0 верхняя 
[Ci]
+2.1 -1 80 +1  1018.2  2.1  761  304  +1.3         
09 07.02.11 290 (З) 10 км    5/5 1000 м 
[Cu med, cong]
+5 -0.9 66 +3  1019.1  0.9  762  301           
12 07.02.11 270 (З) 10 км    10/4 1000 м средняя, верхняя 
[Cu hum|Ac trans|Cs]
+5.5 -2.2 58 +5  1019  -0.1  761  301           
15 07.02.11 270 (З) 10 км    9/8 600 м средняя 
[Sc|Ac As]
+4.6 -3.9 54 +4  1019.2  0.2  762  302           
18 07.02.11 210 (ЮЗ) 10 км    10/8 600 м средняя 
[Sc|Ac As]
+4 -1.9 65 +4  1019  -0.2  761  303    +5.7       
21 07.02.11 200 (Ю) 2000 м  слаб. дождь  10/10 600 м 
[Ns]
+3.2 -0.9 74 +4  1018.7  -0.3  761  303           
00 08.02.11 тихо ()   2000 м  слаб. дождь  10/10 600 м 
[Ns]
+3.6 +0.5 80 +4  1017.5  -1.2  760  302           
03 08.02.11 220 (ЮЗ) 10 км  {дождь}  10/10 600 м 
[Ns]
+3.4 +2.1 91 +4  1016.9  -0.6  760  302           
06 08.02.11 310 (СЗ) 10 км  {дождь}  10/10 200 м 
[St]
+3 +2.2 94 +4  1019  2.1  761  303  +2.8    0.9     
09 08.02.11 330 (СЗ) 10 км    10/10 300 м 
[Sc]
+3.8 +2 88 +3  1019.6  0.6  762  303           
12 08.02.11 270 (З) 10 км    8/8 600 м кучево-дожд. 
[Cb cap]
+5.7 +2.2 78 +5  1018.8  -0.8  761  300           
15 08.02.11 250 (З) 10 км    9/9 600 м 
[Sc]
+5.8 +2.9 82 +7  1018.1  -0.6  761  300           
18 08.02.11 230 (ЮЗ) 10 км    9/9 600 м кучево-дожд. 
[Cb cap]
+5.6 +3.7 88 +6  1017.4  -0.7  760  300    +6.5       
21 08.02.11 230 (ЮЗ) 10 км    8/5 300 м кучево-дожд., средняя 
[Cb cap|Ac trans]
+6.5 +3.4 81 +6  1014.4  -3  758  298           
00 09.02.11 220 (ЮЗ) 10 км    9/9 300 м кучево-дожд. 
[Cb cap]
+8.8 +4 72 +8  1012.3  -2.1  757  295           
03 09.02.11 220 (ЮЗ) 10 км  {ливн. осадки}  5/3 300 м кучево-дожд., верхняя 
[Cb cap|Ci fib]
+9.5 +4.1 69 +8  1009  -3.3  754  293           
06 09.02.11 240 (ЮЗ) 10 км  {ливн. осадки}  9/8 600 м кучево-дожд., средняя, верхняя 
[Cb cap|Ac cast|Ci fib]
+9.5 +3.8 68 +8  1007.8  -1.2  753  293  +5.5    0.0     
09 09.02.11 280 (З) 4000 м  слаб. ливневой дождь  10/10 300 м кучево-дожд. 
[Cb cap]
+7.9 +5.9 87 +6  1006.9  -0.9  752  294           
12 09.02.11 280 (З) 10 км  {ливн. осадки}  4/3 600 м верхняя 
[Sc|Ci fib]
+6.4 +0.5 66 +5  1007.2  0.3  753  296           
15 09.02.11 270 (З) 10 км    ясно 
+4.5 -1.6 64 +2  1009.2  1.9  754  299           
18 09.02.11 240 (ЮЗ) 10 км    9/9 1000 м 
[Sc]
+3.7 -2.2 65 +2  1010.1  0.9  755  300    +10.1     
21 09.02.11 250 (З) 10 км    8/8 1000 м 
[Sc]
+3.9 -2.7 62 +2  1010.1  755  300           
00 10.02.11 270 (З) 10 км    9/9 1000 м 
[Sc]
+2.6 -0.7 79 +1  1010.4  0.3  755  301           
03 10.02.11 270 (З) 10 км    8/8 300 м 
[St]
+2.3 -0.7 80 1010.6  0.2  755  302           
06 10.02.11 270 (З) 10 км    9/9 600 м 
[St]
+1.5 -1.3 81 -1  1011.6  756  303  +1.5         
09 10.02.11 240 (ЮЗ) 10 км    9/9 600 м кучево-дожд. 
[Cb cap]
+3 -2.8 66 +1  1011.2  -0.4  756  301           
12 10.02.11 300 (СЗ) 10 км  {ливн. осадки}  9/9 600 м кучево-дожд. 
[Cb cap]
+3.7 -3.3 60 +1  1010.8  -0.4  755  301           
15 10.02.11 290 (З) 10 км    3/3 1000 м кучево-дожд. 
[Cb cap]
+2 -4.1 64 1011.9  1.1  756  303           
18 10.02.11 290 (З) 10 км  {ливн. осадки}  ясно 
+0.6 -2 83 -1  1013.8  1.9  758  305    +5  0.0     
21 10.02.11 270 (З) 10 км    6/3 1000 м средняя, верхняя 
[Sc|Ac trans|Ci fib]
-0.4 -2.5 86 -1  1015.2  1.3  759  306           
00 11.02.11 320 (СЗ) 4000 м  слаб. снег  10/10 300 м 
[Ns]
-1.2 -2.9 88 -3  1016.4  1.2  759  308           
03 11.02.11 310 (СЗ) 10 км  {снег}  9/3 600 м средняя 
[Sc|Ac trans]
-2.7 -5.7 80 -4  1018.1  1.7  761  310        равномерный
сухой снег
100% 
06 11.02.11 300 (СЗ) 4000 м  {снег}  9/3 600 м средняя 
[Sc|Ac trans]
-2.3 -4.5 85 -4  1019.7  1.6  762  310  -2.7         
09 11.02.11 280 (З) 10 км  {ливн. осадки}  9/9 600 м кучево-дожд. 
[Cb cap]
-1 -8.9 55 -3  1020.3  0.6  762  309           
12 11.02.11 240 (ЮЗ) 4000 м  слаб. ливневой снег  9/9 600 м кучево-дожд. 
[Cb cap]
-1.5 -6.3 70 -4  1020.7  0.4  763  310           
15 11.02.11 270 (З) 10 км  {ливн. осадки}  4/1 1000 м средняя 
[Sc|Ac trans]
-1.4 -7.8 62 -3  1020.3  -0.4  762  310           
18 11.02.11 260 (З) 10 км  {ливн. осадки}  5/0 средняя 
[Ac trans]
-2.4 -6.4 74 -2  1020.3  762  311    +5  0.0     
21 11.02.11 тихо ()   10 км    5/0 средняя 
[Ac trans]
-2.4 -5.7 78 -2  1018.1  -2.2  761  310           
00 12.02.11 100 (В) 10 км    10/10 1000 м 
[Sc]
-1 -4.2 79 1015  -3.1  758  307           
03 12.02.11 210 (ЮЗ) 10 км    10/0 средняя, верхняя 
[Ac trans|Ci fib]
+2.6 -1.6 74 +1  1011.3  -3.6  756  302           
06 12.02.11 220 (ЮЗ) 10 км    10/8 600 м средняя 
[Sc|Ac und]
+4.6 -3.5 56 +2  1008.7  -2.6  754  299  -2.7         
09 12.02.11 230 (ЮЗ) 10 км    10/8 600 м средняя 
[Sc|Ac und]
+5.4 -0.1 68 +2  1005.6  -3  752  297           
12 12.02.11 220 (ЮЗ) 10 км    10/3 600 м средняя 
[Sc|Ac und]
+6.7 -0.3 61 +4  1002  -3.6  749  294           
15 12.02.11 210 (ЮЗ) 10 км  слаб. дождь  10/10 600 м 
[Sc]
+5.5 +0.9 72 +2  999.7  -2.3  747  295           
18 12.02.11 230 (ЮЗ) 9-19  4000 м  слаб. дождь  10/10 600 м 
[Frnb|Ns]
+5.1 +2.1 81 +2  997.3  -2.4  745  294    +7.3  0.0     
21 12.02.11 250 (З) 10 км  в посл. час дождь  10/10 600 м кучево-дожд. 
[Cb cap]
+3.7 +1.1 83 999.1  1.7  747  297           
00 13.02.11 270 (З) 6{18}  10 км  {дождь}  10/10 300 м кучево-дожд. 
[Cb cap]
+2 -2 75 -1  1002.5  3.4  749  300           
03 13.02.11 270 (З) 10 км  {ливн. осадки}  10/10 600 м кучево-дожд. 
[Cb cap]
-1 -6.7 65 -5  1005  2.5  751  304           
06 13.02.11 240 (ЮЗ) 10 км  {ливн. осадки}  3/3 600 м кучево-дожд. 
[Cb cap]
-2.6 -8.7 63 -7  1008.7  3.6  754  307  -3    12     
09 13.02.11 250 (З) 10 км    8/8 600 м кучево-дожд. 
[Cb cap]
-2 -10.5 52 -6  1010.5  1.8  755  307           
12 13.02.11 270 (З) 10 км    8/8 600 м кучево-дожд. 
[Cb cap]
-1.8 -9.7 55 -6  1012  1.5  756  308           
15 13.02.11 270 (З) 10 км    8/8 600 м кучево-дожд. 
[Cb cap]
-2.2 -10.7 52 -6  1013.7  1.7  757  309           
18 13.02.11 270 (З) 10 км    ясно 
-2.8 -10.3 56 -6  1014.7  758  310    +0.2       
21 13.02.11 250 (З) 10 км    ясно 
-3.2 -10 59 -7  1015.6  0.9  759  310           
00 14.02.11 220 (ЮЗ) 10 км    ясно 
-4 -9.8 64 -6  1015.5  -0.1  759  311           
03 14.02.11 260 (З) 10 км    3/3 1000 м 
[Sc]
-3.4 -11.3 54 -6  1015.3  -0.2  759  311           
06 14.02.11 270 (З) 10 км    3/3 1000 м 
[Sc]
-2.8 -11.9 49 -6  1015.5  0.2  759  310  -4.2         
09 14.02.11 260 (З) 10 км    3/1 1000 м средняя 
[Sc|Ac lent]
-0.9 -12.2 42 -4  1014.9  -0.6  758  308           
12 14.02.11 240 (ЮЗ) 10 км    10/4 1000 м средняя, верхняя 
[Sc|Ac trans|Ci fib]
-0.8 -11.4 44 -4  1012.5  -2.4  757  307           
15 14.02.11 250 (З) 4000 м  слаб. снег  10/10 600 м 
[Ns]
-3.4 -6.2 81 -7  1012.3  -0.2  756  309           
18 14.02.11 300 (СЗ) 10 км  в посл. час ливневой снег  8/5 300 м кучево-дожд., верхняя 
[Cb cap|Ci fib]
-4.5 -10.1 65 -6  1012.5  0.2  757  311    +0.4  0.2     
21 14.02.11 250 (З) 10 км    4/4 300 м кучево-дожд. 
[Cb cap]
-5.6 -11.2 65 -8  1013.4  0.9  757  313           
00 15.02.11 280 (З) 10 км    10/8 600 м кучево-дожд., средняя 
[Cb cap|Ac und]
-6.3 -9.9 76 -8  1013.5  0.1  757  313           
03 15.02.11 020 (С) 4000 м  слаб. ливневой снег  10/10 600 м кучево-дожд. 
[Cb cap]
-6.6 -8.6 86 -6  1013.6  0.1  757  314        равномерный
сухой снег
100% 
06 15.02.11 030 (СВ) 4000 м  слаб. ливневой снег  8/6 600 м кучево-дожд., средняя 
[Cb cap|Ac trans]
-7.8 -10 84 -8  1014.5  0.9  758  315  -8    0.5  равномерный
сухой снег
100% 
09 15.02.11 280 (З) 4000 м  слаб. ливневой снег  9/9 600 м кучево-дожд. 
[Cb cap]
-6.2 -11.6 65 -8  1014.4  -0.1  758  314           
12 15.02.11 310 (СЗ) 10 км  слаб. ливневой снег  9/9 600 м кучево-дожд. 
[Cb cap]
-5 -9.9 69 -6  1013.6  -0.8  757  312           
15 15.02.11 300 (СЗ) 10 км  {ливн. осадки}  4/4 600 м 
[Sc]
-6.2 -11.1 68 -8  1013.9  0.3  758  313           
18 15.02.11 340 (С) 10 км  {ливн. осадки}  8/8 600 м кучево-дожд. 
[Cb cap]
-6.6 -11.2 70 -6  1015.3  1.4  759  314    -4.4  0.0     
21 15.02.11 040 (СВ) 10 км  слаб. снег  10/10 600 м 
[Sc]
-7 -10.3 77 -7  1015.9  0.6  759  315           
00 16.02.11 040 (СВ) 10 км  в посл. час снег  3/0 средняя 
[Ac trans]
-7.6 -12.1 70 -7  1016.9  760  316           
03 16.02.11 тихо ()   10 км    9/0 средняя 
[Ac trans]
-8.5 -10.4 86 -9  1017.9  761  317        сухой снег
50-90% 
06 16.02.11 280 (З) 10 км  слаб. ливневой снег  8/4 1000 м кучево-дожд., средняя 
[Cb cap|Ac und]
-7.6 -10.2 82 -7  1019.5  1.5  762  317  -8.7    0.0  сухой снег
50-90% 
09 16.02.11 300 (СЗ) >10 км  слаб. ливневой снег  10/10 600 м кучево-дожд. 
[Cb cap]
-6.3 -10.3 73 -8  1021.2  1.7  763  316           
12 16.02.11 330 (СЗ) 4000 м  слаб. ливневой снег  9/9 600 м кучево-дожд. 
[Cb cap]
-4.8 -9.7 68 -4  1021.6  0.4  759  312           
15 16.02.11 тихо ()   10 км  слаб. ливневой снег  8/8 1000 м кучево-дожд. 
[Cb cap]
-5.8 -10.9 67 -6  1023.1  1.5  764  316           
18 16.02.11 310 (СЗ) 10 км  {ливн. осадки}  3/3 1000 м 
[Sc]
-7.2 -11.5 71 -7  1024.6  1.5  766  318    -3.9  0.2     
21 16.02.11 010 (С) 10 км    ясно 
-9.1 -13 73 -11  1025.1  0.5  766  320           
00 17.02.11 050 (СВ) 10 км    10/0 верхняя 
[Cs]
-10.4 -13.2 80 -10  1025.4  0.3  766  322           
03 17.02.11 040 (СВ) 10 км    10/0 верхняя 
[Ci]
-11.7 -13.7 85 -14  1025.4  766  324        мокрый или
старый снег
10-40% 
06 17.02.11 040 (СВ) 10 км    10/4 1000 м верхняя 
[Sc|Ci]
-11.3 -13.3 85 -11  1026  0.6  767  323  -12.4    0.0  мокрый или
старый снег
10-40% 
09 17.02.11 040 (СВ) 10 км    6/3 1000 м верхняя 
[Sc|Ci fib]
-5.7 -10.9 67 -7  1026  767  317           
12 17.02.11 030 (СВ) 10 км    8/0 средняя, верхняя 
[Ac trans|Cc]
-3.7 -14.6 43 -5  1025.2  -0.7  766  314           
15 17.02.11 350 (С) 10 км    3/0 средняя, верхняя 
[Ac trans|Ci fib]
-4.6 -15.7 41 -6  1025.7  0.5  766  315           
18 17.02.11 040 (СВ) 10 км    ясно 
-7.3 -12.6 66 -7  1026.6  0.8  767  319    -3.4       
21 17.02.11 020 (С) 10 км    3/0 верхняя 
[Ci fib]
-8.9 -13.3 71 -9  1026.8  0.2  767  321           
00 18.02.11 060 (СВ) 10 км    ясно 
-10.2 -14.6 70 -10  1026.9  0.1  767  322           
03 18.02.11 040 (СВ) 10 км    3/0 верхняя 
[Ci fib]
-11.1 -14.7 75 -11  1027.2  0.3  767  324           
06 18.02.11 060 (СВ) 10 км    9/0 средняя 
[Ac cast]
-9.5 -12.1 81 -11  1026.8  -0.4  767  321  -11.1         
09 18.02.11 040 (СВ) 10 км    9/0 средняя 
[Ac trans]
-5.2 -14.3 49 -7  1025.4  -1.4  766  316           
12 18.02.11 030 (СВ) 10 км    10/0 средняя, верхняя 
[Ac trans|Ci fib]
-1.8 -14.4 38 -4  1025.3  -1.4  766  312           
15 18.02.11 020 (С) 10 км    10/0 верхняя 
[Ci fib]
-4 -13.7 47 -6  1025  -0.3  766  314    -1.8       
18 18.02.11 030 (СВ) 10 км    ясно 
-5.7 -10.8 67 -7  1024.7  -0.3  766  316    -1.8       
21 18.02.11 040 (СВ) 10 км    3/0 верхняя 
[Ci fib]
-6.6 -10.9 72 -8  1023.7  -1.1  765  317           
00 19.02.11 020 (С) 10 км    3/0 верхняя 
[Ci fib]
-8.5 -11.4 80 -10  1022.4  -1.3  764  319           
03 19.02.11 010 (С) 10 км    3/0 верхняя 
[Ci fib]
-10.1 -12.6 82 -10  1021.5  -0.9  763  320           
06 19.02.11 020 (С) н/о    н/о 
-9.2 -12.9 74 -11  1021.1  -0.4  763  319  -10.1         
09 19.02.11 010 (С) 10 км    10/0 средняя, верхняя 
[Ac trans|Ci]
-3.1 -11 54 -5  1018.8  -2.1  761  311           
12 19.02.11 020 (С) 10 км    10/0 средняя, верхняя 
[Ac trans|Ci]
-1.1 -9.8 52 -3  1016.4  -2.4  759  308           
15 19.02.11 020 (С) 10 км    10/0 средняя, верхняя 
[Ac trans|Cs]
-1.6 -8 62 -4  1015.7  -1  759  308           
18 19.02.11 040 (СВ) 10 км    10/0 средняя 
[Ac und]
-4 -8.1 73 -6  1014.6  -1.1  758  311    -0.4       
21 19.02.11 360 (С) 10 км    10/0 верхняя 
[Cs]
-5.7 -9.9 72 -7  1012.7  -1.5  757  312           
00 20.02.11 360 (С) 10 км    10/0 средняя 
[Ac und]
-6.5 -10.9 71 -8  1011.8  -0.9  756  313           
03 20.02.11 020 (С) 10 км    10/0 средняя 
[Ac und]
-7 -10.9 74 -8  1011.7  -0.1  756  314           
06 20.02.11 010 (С) 10 км    10/3 1000 м средняя 
[Sc|Ac und]
-5.5 -8.6 79 -8  1011.8  0.2  756  312  -7.1         
09 20.02.11 010 (С) 10 км    10/5 1000 м средняя 
[Sc|Ac und]
-3.4 -7.8 72 -6  1012  0.1  756  309           
12 20.02.11 020 (С) 10 км    10/8 1000 м средняя 
[Sc|Ac und]
-2.5 -6.9 72 -5  1011.8  0.1  756  308           
15 20.02.11 020 (С) 10 км    10/8 1000 м средняя 
[Sc|Ac und]
-2.9 -6.9 74 -6  1013.1  1.2  757  309    -2.3       
18 20.02.11 010 (С) 10 км    10/8 600 м средняя 
[Sc|Ac und]
-4.2 -7.5 78 -6  1014.3  1.2  758  311    -2.3       
21 20.02.11 010 (С) 10 км    10/8 600 м средняя 
[Sc|Ac und]
-4.9 -8.8 74 -8  1015  0.6  758  312           
00 21.02.11 010 (С) 10 км    10/10 600 м 
[Sc]
-5.2 -9.8 70 -8  1015.3  0.4  759  313           
03 21.02.11 010 (С) 10 км    10/4 600 м средняя, верхняя 
[Sc|Ac trans|Ci fib]
-6.1 -10.4 71 -9  1016.1  0.7  759  314           
06 21.02.11 010 (С) 10 км    10/0 верхняя 
[Ci fib]
-4.8 -9.7 68 -7  1017.2  1.2  760  313  -6.2         
09 21.02.11 030 (СВ) 10 км    9/8 1000 м средняя 
[Sc|Ac trans]
-1.8 -8.2 62 -5  1018  0.8  761  309           
12 21.02.11 040 (СВ) 4000 м  слаб. ливневой снег  10/10 600 м кучево-дожд. 
[Cb cap]
-1.9 -4.2 84 -5  1018.8  0.7  761  309           
15 21.02.11 040 (СВ) 10 км  в посл. час ливневой снег  10/10 300 м кучево-дожд. 
[Cb cap]
-1.8 -4.5 82 -4  1020.4  1.6  762  310    -1.5       
18 21.02.11 050 (СВ) 10 км  {ливн. осадки}  ясно 
-2.3 -4.7 84 -4  1021.7  1.3  763  311    -1.5  0.7     
21 21.02.11 050 (СВ) 10 км    10/10 300 м кучево-дожд. 
[Cb calv]
-3.1 -7.2 73 -6  1022.2  0.5  764  312           
00 22.02.11 050 (СВ) 10 км    10/8 600 м 
[Sc]
-3.2 -7.3 73 -4  1023  0.7  764  312           
03 22.02.11 040 (СВ) 10 км    9/8 600 м кучево-дожд. 
[Cb calv]
-3.3 -7.3 74 -5  1023.5  0.6  765  313           
06 22.02.11 030 (СВ) 10 км    10/1 1500 м средняя, верхняя 
[Sc|Ac trans|Ci]
-4.4 -8.5 73 -8  1024.1  0.5  765  314  -3.4         
09 22.02.11 040 (СВ) 10 км    10/0 средняя, верхняя 
[Ac trans|Ci]
-0.3 -7.1 60 -2  1023.4  -0.6  765  309           
12 22.02.11 030 (СВ) 10 км    10/0 средняя, верхняя 
[Ac trans|Ci]
+1.6 -6.7 54 1022  -1.4  764  307           
15 22.02.11 040 (СВ) 10 км    8/0 средняя, верхняя 
[Ac trans|Ci]
-0.2 -6.4 63 -2  1021.9  0.1  764  309    +1.9       
18 22.02.11 040 (СВ) 10 км    ясно 
-3.5 -8.5 68 -6  1022.5  0.6  764  313    +1.9       
21 22.02.11 040 (СВ) 10 км    8/0 верхняя 
[Ci]
-4.2 -9.2 68 -6  1021.9  -0.6  764  313           
00 23.02.11 040 (СВ) 10 км    10/0 верхняя 
[Ci fib]
-4 -8.6 70 -6  1021.8  0.1  763  313           
03 23.02.11 040 (СВ) 10 км    10/0 средняя 
[Ac und]
-4 -8.9 69 -6  1021.8  763  313           
06 23.02.11 040 (СВ) 10 км    10/6 1000 м средняя, верхняя 
[Sc|Ac trans|Ci]
-3.4 -9 65 -6  1022.1  0.3  764  313  -4.4         
09 23.02.11 040 (СВ) 10 км    9/4 1000 м средняя, верхняя 
[Sc|Ac trans|Cc]
+0.5 -7.7 54 -2  1021.8  -0.3  764  308           
12 23.02.11 020 (С) 10 км    10/8 1000 м средняя 
[Sc|Ac und]
+2.6 -5.6 55 +1  1021.7  0.1  763  305           
15 23.02.11 030 (СВ) 10 км    10/8 1000 м средняя, верхняя 
[Sc|Ac trans|Ci]
+1.2 -4.6 65 -1  1021.9  0.1  764  307    +3.3       
18 23.02.11 030 (СВ) 10 км    10/10 1000 м 
[Sc]
+0 -5.2 68 -2  1021.9  764  308    +3.3       
21 23.02.11 030 (СВ) 10 км    1/0 средняя 
[Ac trans]
-0.7 -5.1 72 -2  1021.6  -0.3  763  309           
00 24.02.11 020 (С) 10 км    4/3 1000 м средняя 
[Sc|Ac trans]
-1.8 -5.4 76 -4  1021.4  -0.3  763  310           
06 24.02.11 030 (СВ) 10 км  дым  10/0 средняя, верхняя 
[Ac trans|Ci fib]
-0.6 -5.7 68 -3  1022.2  0.3  764  309  -2.6         
09 24.02.11 030 (СВ) 10 км    4/0 средняя, верхняя 
[Ac trans|Ci fib]
+4.1 -4.4 54 +2  1022.5  0.4  764  304           
12 24.02.11 030 (СВ) 10 км    3/0 верхняя 
[Ci fib]
+5.3 -3.4 53 +4  1022.5  764  302           
15 24.02.11 030 (СВ) 10 км    8/0 средняя, верхняя 
[Ac trans|Ci fib]
+2.3 -3.4 66 1022.9  0.4  764  306    +5.8       
18 24.02.11 030 (СВ) 10 км    5/0 верхняя 
[Ci fib]
+0.5 -3.7 73 -2  1022.7  -0.2  764  308    +5.8       
21 24.02.11 030 (СВ) 10 км    ясно 
-0.1 -4.1 74 -2  1022.3  -0.4  764  308           
00 25.02.11 030 (СВ) 10 км    4/0 верхняя 
[Ci fib]
-0.9 -5.1 73 -3  1022.1  -0.2  764  309           
03 25.02.11 020 (С) 10 км    10/0 средняя, верхняя 
[Ac trans|Ci fib]
-2.3 -5.6 78 -4  1022.4  0.2  764  311           
06 25.02.11 020 (С) 10 км    9/0 верхняя 
[Ci fib]
-0.8 -5.3 72 -3  1022.4  0.1  764  309  -2.3         
09 25.02.11 050 (СВ) 10 км    10/0 верхняя 
[Ci fib]
+2.9 -4.8 57 1021.6  -0.8  763  305           
12 25.02.11 040 (СВ) 10 км    10/0 верхняя 
[Ci fib]
+5.1 -3.7 53 +3  1020.8  -0.8  763  302           
15 25.02.11 030 (СВ) 10 км    10/5 1000 м средняя, верхняя 
[Sc|Ac trans|Ci fib]
+1.7 -3.7 67 1021.1  0.2  763  306    +5.1       
18 25.02.11 020 (С) 10 км    ясно 
-0.1 -3.7 77 -2  1020.6  -0.4  763  308    +5.1       
21 25.02.11 030 (СВ) 10 км    ясно 
+0 -4.1 74 -2  1019.9  -0.8  762  308           
00 26.02.11 030 (СВ) 10 км    ясно 
-1.1 -5.2 74 -3  1019.6  -0.3  762  309           
03 26.02.11 020 (С) 10 км    ясно 
-3 -6.1 79 -5  1019.1  -0.5  761  311           
06 26.02.11 020 (С) 10 км    9/4 1000 м средняя 
[Sc|Ac trans]
-2 -6 74 -5  1018.9  -0.2  761  310  -3         
09 26.02.11 030 (СВ) 10 км    9/8 600 м верхняя 
[Sc|Ci fib]
+2.6 -4.7 59 1017.3  -0.2  760  304           
12 26.02.11 030 (СВ) 10 км    10/10 600 м 
[Sc]
+2.3 -4.3 62 1016  -1.3  759  304           
15 26.02.11 030 (СВ) 10 км    10/8 600 м верхняя 
[Sc|Ci fib]
+1.2 -4.6 65 -2  1016.1  0.1  759  305    +3.1       
18 26.02.11 020 (С) 10 км    10/10 600 м 
[Sc]
-0.9 -5.4 72 -4  1016.9  0.7  760  308    +3.1       
21 26.02.11 030 (СВ) 10 км    10/6 600 м средняя 
[Sc|Ac und]
-2.5 -6.7 73 -6  1017.3  0.4  760  310           
00 27.02.11 030 (СВ) 10 км    10/4 1000 м средняя 
[Sc|Ac und]
-3.1 -7.6 71 -7  1017.9  0.6  761  311           
03 27.02.11 020 (С) 10 км    10/10 600 м 
[Sc]
-4.1 -8.1 74 -8  1018.9  761  312           
06 27.02.11 030 (СВ) 4000 м  слаб. снег  10/10 300 м 
[Ns]
-5.3 -7.6 84 -9  1020.5  1.6  762  314  -4.1         
09 27.02.11 030 (СВ) 4000 м  слаб. снег  10/10 600 м 
[Ns]
-3 -6.6 76 -5  1020.9  0.4  763  311           
12 27.02.11 030 (СВ) 10 км  {снег}  10/5 1000 м средняя 
[Sc|As op]
-1.3 -5 76 -4  1021.2  0.4  763  310           
15 27.02.11 030 (СВ) 4000 м  слаб. снег  10/10 300 м 
[Frnb|Ns]
-2.2 -3.2 93 -5  1022  0.8  764  311    -1.3       
18 27.02.11 030 (СВ) 4000 м  слаб. снег  10/10 300 м 
[Frnb|Ns]
-2.3 -3.1 94 -4  1022.9  0.8  764  311    -1.3  0.2     
21 27.02.11 030 (СВ) 4000 м  слаб. снег  10/10 300 м 
[Frnb|Ns]
-1.6 -2.2 96 -3  1022.6  -0.3  764  310           
00 28.02.11 020 (С) 10 км  слаб. снег  10/10 300 м 
[Frnb|Ns]
-1.7 -2.3 96 -3  1023.1  0.5  764  310           
03 28.02.11 030 (СВ) 10 км  в посл. час снег  10/10 300 м 
[St|Ns]
-2.2 -3.2 93 -3  1023.4  0.3  765  311           
06 28.02.11 030 (СВ) 4000 м  слаб. снег  10/10 300 м 
[Ns]
-2.1 -4.2 85 -4  1024.6  1.2  766  311  -2.4       
09 28.02.11 030 (СВ) 10 км  {снег}  10/10 300 м 
[St]
+0.3 -3.8 74 1024.8  0.3  766  309           
12 28.02.11 020 (С) 10 км  {снег}  9/0 средняя 
[Sc|Ac trans]
+2.2 -2.4 72 +2  1024.2  -0.6  765  306           
15 28.02.11 020 (С) 10 км    9/8 1000 м средняя 
[Sc|Ac trans]
+2.2 -2 74 +2  1024.2  765  306    +3.2       
18 28.02.11 020 (С) 10 км    9/8 1000 м средняя 
[Sc|Ac trans]
+1 -2.1 80 1024.3  0.1  765  308    +3.2       
21 28.02.11 010 (С) 10 км    9/3 1500 м средняя 
[Sc|Ac trans]
-0.1 -2.4 84 +1  1024.2  -0.2  765  309           
00 01.03.11 020 (С) 10 км    9/8 1000 м средняя 
[Sc|Ac trans]
+0.1 -2.3 84 -1  1024.6  0.4  766  309           
03 01.03.11 030 (СВ) 4000 м  ледяной дождь (гололёд){снег}  10/10 600 м 
[Ns]
-0.3 -2.7 84 1025.8  1.1  766  310           
06 01.03.11 020 (С) 10 км  {снег}  10/8 1000 м средняя 
[Sc|Ac und]
-0.2 -2.8 83 -2  1026.7  0.9  767  310  -0.3         
09 01.03.11 030 (СВ) 10 км    10/10 1000 м 
[Sc]
+1.1 -2.5 77 1027.3  0.7  768  308           
12 01.03.11 020 (С) 10 км  слаб. морось  10/10 600 м 
[St]
+1.1 -1.7 82 1027.1  -0.2  767  308           
15 01.03.11 тихо ()   4000 м  ледяной дождь (гололёд){снег, морось}  10/10 600 м 
[Ns]
+0.8 -0.4 92 +1  1027.5  0.3  768  308    +1.9       
18 01.03.11 360 (С) 4000 м  слаб. дождь{снег}  10/10 600 м 
[Ns]
+0.6 -0.1 95 +1  1027.7  0.2  768  309    +1.9       
21 01.03.11 360 (С) 4000 м  дымка{снег, дождь}  10/10 600 м 
[Ns]
+0.5 +0 97 +1  1027.7  768  309           
00 02.03.11 350 (С) 4000 м  дымка{снег, дождь}  10/10 600 м 
[Ns]
+0.1 -0.6 95 +1  1027.8  0.2  768  309           
03 02.03.11 010 (С) 10 км    10/10 300 м 
[St]
-0.1 -0.9 94 +1  1027.8  768  310        мокрый или
старый снег
50-90% 
06 02.03.11 010 (С) 4000 м  слаб. ливневой снег  10/10 200 м кучево-дожд. 
[Cb cap]
+0.1 -0.7 94 +1  1028.3  0.5  768  310  -0.1         
09 02.03.11 340 (С) 4000 м  слаб. снег{ливн. осадки}  10/10 200 м 
[Ns]
-0.9 -2.2 91 -2  1028.7  0.4  769  311           
12 02.03.11 320 (СЗ) 4000 м  слаб. ливневой снег  10/10 300 м кучево-дожд. 
[Cb cap]
-1.6 -3.3 88 -1  1028.8  -0.1  769  312           
15 02.03.11 310 (СЗ) 1000 м  ливневой снег  10/10 100 м кучево-дожд. 
[Cb cap]
-2.4 -3.6 91 -2  1030.1  1.2  770  313    +0.2       
18 02.03.11 340 (С) 4000 м  слаб. ливневой снег  9/9 600 м кучево-дожд. 
[Cb cap]
-4.1 -5.4 91 -5  1032  1.8  771  316    +0.2     
21 02.03.11 360 (С) 4000 м  слаб. снег{ливн. осадки}  10/10 600 м 
[Sc]
-4.1 -6 87 -4  1032.7  0.7  772  316           
00 03.03.11 310 (СЗ) 10 км  {ливн. осадки, снег}  10/10 600 м 
[Sc]
-5 -7.8 81 -5  1033.1  0.4  772  318           
03 03.03.11 320 (СЗ) 10 км    1/1 600 м 
[Sc]
-8.1 -10.5 83 -8  1034.1  0.9  773  322        равномерный
сухой снег
100% 
06 03.03.11 010 (С) 10 км    ясно 
-6.8 -11.5 69 -6  1034.7  0.7  773  321  -8.1         
09 03.03.11 320 (СЗ) 10 км    ясно 
-2.9 -9.4 61 -2  1034.5  -0.2  773  316           
12 03.03.11 270 (З) 10 км    ясно 
-0.9 -9.7 51 -2  1033  -1.5  772  313           
15 03.03.11 260 (З) 10 км    3/3 1000 м верхняя 
[Sc|Ci fib]
-2.1 -10.1 54 -3  1032.4  -0.6  771  314    +0.2       
18 03.03.11 240 (ЮЗ) 10 км    3/0 верхняя 
[Ci fib]
-3.2 -8.7 66 -3  1031.6  -0.8  771  315    +0.2       
21 03.03.11 250 (З) 10 км    8/5 1000 м средняя 
[Sc|Ac trans]
-4.8 -8 78 -4  1031.2  -0.4  770  317           
00 04.03.11 260 (З) 10 км    10/10 1000 м 
[Sc]
-4.6 -7.7 79 -4  1030.5  -0.8  770  316           
03 04.03.11 тихо ()   10 км    8/3 1000 м верхняя 
[Sc|Ci fib]
-5.8 -7.4 88 -6  1030.3  0.1  770  318           
06 04.03.11 260 (З) 10 км    1/1 300 м 
[St]
-3.6 -6.7 79 -3  1031.2  770  315  -5.8         
Время (UTC), дата Ветер
(°,м/с) 
Видим.   Явления Облачность Т
(°С)
Тd
(°С)
f(%) Тe
(°С)
Pmin
(гПа)
dP
(гПа)
Po
(мм)
O2
(г/м3)
Тmin Tmax R s Состояние
почвы